CNCE1 (48875 NORAD) Tracking and Keplerian Element Data

This shows tracking and keplerian element data for the satellite.

Feedback or suggestion? Click here.




ElementValue
Catalog48875
NameCNCE1
Epoch Orbit1331
Epoch Day269.25904191
Epoch Year2021
RAAN256.5801
Inclination60.6949
Eccentricity0.0028107
Argument of Perigee12.9328
Mean Anonmoly0.6099
Mean Motion15.19446311
Decay Rate2.286E-05
L11 48875U 21058E 21269.25904191 .00002286 00000-0 11850-3 0 9995
L22 48875 60.6949 256.5801 0028107 12.9328 0.6099 15.19446311 13315

Live tracking and technical data element details for CNCE1 (NORAD 48875). CNCE1 can be tracked NOW for your location showing map with azimuth and elevation plus other details from your city location.

Track the satellite on the map from your city or location and see movement details for azimuth, elevation, latitude, longitude, range, height, and movement on the map or in text.







IsCatalogInMostPopularTable: catalog: 48875, numindb: 17
Update: records affected: 1



GetName: 48875 CNCE1

Hit Count: updated at: Sun, 26 Sep 2021 16:38:22 GMT